Location: Lake Arresoe
(56.0000°N, 12.5000°E)
Time: 22:57:31
(UTC+02:00)

ISS - Visible Passes

Search period start: 16 September 2019 00:00
Search period end: 26 September 2019 00:00
Orbit: 411 x 421 km, 51.6° (Epoch: 17 September)

Date Brightness Start Highest point End Pass type
(mag) Time Alt. Az. Time Alt. Az. Time Alt. Az.
20 Sep -1.1 21:26:23 10° SSW 21:26:23 10° SSW 21:26:23 10° SSW visible
21 Sep -1.8 20:38:36 10° S 20:40:17 15° SSE 20:40:17 15° SSE visible
22 Sep -1.5 19:51:20 10° SSE 19:52:21 11° SE 19:53:21 10° SE visible
22 Sep -2.0 21:25:24 10° SW 21:26:55 21° SSW 21:26:55 21° SSW visible
23 Sep -2.5 20:37:14 10° SSW 20:39:58 24° SSE 20:40:30 23° SE visible
23 Sep -0.9 22:13:06 10° WSW 22:13:25 12° WSW 22:13:25 12° WSW visible
24 Sep -2.1 19:49:13 10° SSW 19:51:38 19° SSE 19:53:59 10° ESE visible
24 Sep -2.5 21:24:43 10° WSW 21:26:53 29° SSW 21:26:53 29° SSW visible
25 Sep -2.9 20:36:23 10° SW 20:39:25 33° SSE 20:40:17 28° SE visible
25 Sep -1.0 22:12:38 10° WSW 22:13:10 13° WSW 22:13:10 13° WSW visible
